SERVIS 2 DEB, 43394

Orbit data source: Space-Track

SERVIS 2 DEB, 43394 is space debris in SSO originally from a launch on Wed, 02 Jun 2010 UTC launched from the Plesetsk Missile And Space Complex (PKMTR). Debris objects in space refer to the collection of defunct objects orbiting the Earth. Examples of debris include non-operational satellites, rocket bodies, and fragments generated from explosions, collisions, or faulty payload assembly.

Loading next visibility...
Identifier
43394, 2010-023D
Orbit
SSO
Country
Flag of CISCIS
Related business
Manufacturer
MELCO
Mission
Spacecraft
Bus & Motor
Unknown
Mass
Unknown
Launch date (UTC)
2010-06-02 (16 years ago)
Launch vehicle
Unknown
Launch site
Plesetsk Missile And Space Complex (PKMTR)
Object type
Payload
Rocket body
Debris
Shape & HBR
Unknown shape, 0.1 m
Radar Cross Section
Small (<0.1 m²)

Expand to show TLE details & history
Last TLE update: 1 week ago

TLE from 1 week ago
0 SERVIS 2 DEB
1 43394U 10023D   26119.35662471  .00005395  00000-0  72181-2 0  9995
2 43394 100.4975 146.4628 0035161 109.4996 250.9944 13.60388521 91051
Epoch: 2026-04-29T08:33Z
TLE epoch observation values (Epoch: 2026-04-29T08:33:32.374Z)
Latitude
-0.0001°
Longitude
160.75917°
Altitude
1,045.623 km
Speed
7.325 km/s
True Right ascension
09h 45m 51s
True Declination
0° 00' 00"
Sunlit
Object was in daylight at epoch
Visualization orbit readout
Latitude
Unknown
Longitude
Unknown
Altitude
Unknown
Speed
Unknown
Apparent Right ascension
Unknown
Apparent Declination
Unknown
Sunlit
N/A
Visualization observer readout
Local Sidereal Time
06:24:09
Azimuth
Unknown
Elevation
Unknown
Doppler factor
Unknown
Orbital elements
Apogee altitude
1,057.664 km
Perigee altitude
1,005.557 km
Semi-major axis
7,409.748 km
Eccentricity
0.00352
Inclination
100.4975°
RAAN
146.4628°
Arg. of periapsis
109.4996°
True anomaly
250.614°
Mean anomaly
250.9944°
Eccentric anomaly
250.80414°
Mean motion
3.40281 °/min
Orbital period
105.79 mins
BSTAR
0.0072181
Loading maneuver chart data...
Computing Atmospheric mass density...
Loading historical data...
Loading historical data...
Loading historical data...
Loading historical data...
Loading historical data...
Loading historical data...
Loading historical data...
Other satellites on launch #23 in the year 2010 (2010-06-02 UTC)

Documentation

Showing up to 5 results
|